When you browse on this site, cookies collect data to enhance your experience and personalize the content and advertising you see.
Visit our Privacy Policy to learn more. By continuing to use the site, you agree to this use of cookies and data.
  • In France
  • List of Countries
  • For 7 days
  • Water Temperature
  • Weather Map
  • Weather Widgets
  • user-avatar
    Login

    Hourly Weather Dahab

    Today, 20 August, Tuesday

    Time Temperature Precipitation Wind Pressure Humidity
    00:00 +26°C° 0 mm 2 mps 711 mmHg 33%
    01:00 +25°C° 0 mm 2 mps 710 mmHg 35%
    02:00 +24°C° 0 mm 1 mps 710 mmHg 39%
    03:00 +24°C° 0 mm 1 mps 710 mmHg 40%
    04:00 +23°C° 0 mm 2 mps 710 mmHg 41%
    05:00 +23°C° 0 mm 2 mps 711 mmHg 43%
    06:00 +25°C° 0 mm 2 mps 711 mmHg 37%
    07:00 +28°C° 0 mm 2 mps 711 mmHg 32%
    08:00 +31°C° 0 mm 2 mps 712 mmHg 26%
    09:00 +32°C° 0 mm 2 mps 712 mmHg 24%
    10:00 +34°C° 0 mm 3 mps 712 mmHg 23%
    11:00 +36°C° 0 mm 3 mps 712 mmHg 21%
    12:00 +36°C° 0 mm 3 mps 711 mmHg 22%
    13:00 +36°C° 0 mm 3 mps 711 mmHg 22%
    14:00 +37°C° 0 mm 3 mps 711 mmHg 23%
    15:00 +36°C° 0 mm 2 mps 711 mmHg 23%
    16:00 +36°C° 0 mm 2 mps 711 mmHg 23%
    17:00 +35°C° 0 mm 1 mps 711 mmHg 23%
    18:00 +34°C° 0 mm 2 mps 711 mmHg 25%
    19:00 +31°C° 0 mm 2 mps 711 mmHg 28%
    20:00 +29°C° 0 mm 2 mps 711 mmHg 30%
    21:00 +29°C° 0 mm 3 mps 711 mmHg 31%
    22:00 +28°C° 0 mm 3 mps 711 mmHg 33%
    23:00 +28°C° 0 mm 3 mps 711 mmHg 34%

    Tomorrow, 21 August, Wednesday

    Time Temperature Precipitation Wind Pressure Humidity
    00:00 +27°C° 0 mm 3 mps 711 mmHg 36%
    01:00 +26°C° 0 mm 3 mps 711 mmHg 38%
    02:00 +26°C° 0 mm 3 mps 710 mmHg 39%
    03:00 +26°C° 0 mm 3 mps 710 mmHg 40%
    04:00 +25°C° 0 mm 3 mps 710 mmHg 40%
    05:00 +25°C° 0 mm 3 mps 710 mmHg 41%
    06:00 +27°C° 0 mm 3 mps 711 mmHg 35%
    07:00 +30°C° 0 mm 3 mps 711 mmHg 29%
    08:00 +33°C° 0 mm 3 mps 712 mmHg 23%
    09:00 +35°C° 0 mm 3 mps 712 mmHg 22%
    10:00 +36°C° 0 mm 4 mps 712 mmHg 21%
    11:00 +38°C° 0 mm 4 mps 711 mmHg 20%
    12:00 +38°C° 0 mm 4 mps 711 mmHg 20%
    13:00 +39°C° 0 mm 3 mps 711 mmHg 19%
    14:00 +39°C° 0 mm 3 mps 710 mmHg 19%
    15:00 +39°C° 0 mm 3 mps 710 mmHg 20%
    16:00 +38°C° 0 mm 2 mps 710 mmHg 21%
    17:00 +38°C° 0 mm 2 mps 709 mmHg 22%
    18:00 +36°C° 0 mm 2 mps 709 mmHg 24%
    19:00 +34°C° 0 mm 3 mps 709 mmHg 25%
    20:00 +31°C° 0 mm 3 mps 710 mmHg 27%
    21:00 +31°C° 0 mm 3 mps 710 mmHg 28%
    22:00 +30°C° 0 mm 3 mps 710 mmHg 29%
    23:00 +30°C° 0 mm 4 mps 710 mmHg 29%

    Day after tomorrow, 22 August, Thursday

    Time Temperature Precipitation Wind Pressure Humidity
    00:00 +29°C° 0 mm 4 mps 710 mmHg 32%
    01:00 +29°C° 0 mm 4 mps 709 mmHg 34%
    02:00 +28°C° 0 mm 4 mps 709 mmHg 36%
    03:00 +28°C° 0 mm 4 mps 709 mmHg 37%
    04:00 +27°C° 0 mm 3 mps 709 mmHg 37%
    05:00 +27°C° 0 mm 3 mps 709 mmHg 37%
    06:00 +29°C° 0 mm 4 mps 710 mmHg 32%
    07:00 +33°C° 0 mm 4 mps 710 mmHg 27%
    08:00 +35°C° 0 mm 4 mps 710 mmHg 23%
    09:00 +36°C° 0 mm 4 mps 710 mmHg 21%
    10:00 +38°C° 0 mm 4 mps 710 mmHg 20%
    11:00 +40°C° 0 mm 4 mps 710 mmHg 18%
    12:00 +41°C° 0 mm 4 mps 710 mmHg 18%
    13:00 +40°C° 0 mm 3 mps 709 mmHg 18%
    14:00 +42°C° 0 mm 3 mps 709 mmHg 18%
    15:00 +40°C° 0 mm 2 mps 708 mmHg 18%
    16:00 +40°C° 0 mm 2 mps 708 mmHg 18%
    17:00 +40°C° 0 mm 2 mps 708 mmHg 17%
    18:00 +38°C° 0 mm 2 mps 708 mmHg 21%
    19:00 +35°C° 0 mm 3 mps 708 mmHg 25%
    20:00 +33°C° 0 mm 4 mps 709 mmHg 29%
    21:00 +32°C° 0 mm 4 mps 709 mmHg 31%
    22:00 +32°C° 0 mm 4 mps 709 mmHg 32%
    23:00 +30°C° 0 mm 3 mps 709 mmHg 34%

    23 August, Friday

    Time Temperature Precipitation Wind Pressure Humidity
    00:00 +30°C° 0 mm 3 mps 709 mmHg 35%
    01:00 +29°C° 0 mm 3 mps 708 mmHg 36%
    02:00 +29°C° 0 mm 3 mps 708 mmHg 37%
    03:00 +29°C° 0 mm 3 mps 708 mmHg 38%
    04:00 +28°C° 0 mm 3 mps 708 mmHg 40%
    05:00 +27°C° 0 mm 3 mps 708 mmHg 41%
    06:00 +30°C° 0 mm 3 mps 708 mmHg 36%
    07:00 +33°C° 0 mm 3 mps 709 mmHg 32%
    08:00 +35°C° 0 mm 3 mps 709 mmHg 27%
    09:00 +36°C° 0 mm 3 mps 709 mmHg 26%
    10:00 +37°C° 0 mm 4 mps 709 mmHg 25%
    11:00 +38°C° 0 mm 4 mps 709 mmHg 24%
    12:00 +40°C° 0 mm 4 mps 709 mmHg 24%
    13:00 +39°C° 0 mm 3 mps 708 mmHg 23%
    14:00 +40°C° 0 mm 3 mps 708 mmHg 23%
    15:00 +39°C° 0 mm 3 mps 708 mmHg 24%
    16:00 +39°C° 0 mm 2 mps 708 mmHg 24%
    17:00 +38°C° 0 mm 2 mps 707 mmHg 25%
    18:00 +35°C° 0 mm 1 mps 708 mmHg 30%
    19:00 +33°C° 0 mm 1 mps 708 mmHg 34%
    20:00 +30°C° 0 mm 1 mps 708 mmHg 38%
    21:00 +30°C° 0 mm 1 mps 708 mmHg 40%
    22:00 +30°C° 0 mm 2 mps 708 mmHg 41%
    23:00 +29°C° 0 mm 2 mps 708 mmHg 42%

    24 August, Saturday

    Time Temperature Precipitation Wind Pressure Humidity
    00:00 +29°C° 0 mm 2 mps 708 mmHg 45%
    01:00 +28°C° 0 mm 2 mps 708 mmHg 47%
    02:00 +27°C° 0 mm 2 mps 708 mmHg 49%
    03:00 +27°C° 0 mm 2 mps 708 mmHg 50%
    04:00 +26°C° 0 mm 2 mps 708 mmHg 50%
    05:00 +26°C° 0 mm 2 mps 708 mmHg 51%
    06:00 +28°C° 0 mm 2 mps 708 mmHg 45%
    07:00 +31°C° 0 mm 2 mps 709 mmHg 39%
    08:00 +35°C° 0 mm 3 mps 710 mmHg 33%
    09:00 +36°C° 0 mm 3 mps 710 mmHg 31%
    10:00 +37°C° 0 mm 4 mps 710 mmHg 30%
    11:00 +38°C° 0 mm 4 mps 710 mmHg 28%
    12:00 +40°C° 0 mm 4 mps 710 mmHg 26%
    13:00 +39°C° 0 mm 3 mps 709 mmHg 24%
    14:00 +40°C° 0 mm 3 mps 709 mmHg 22%
    15:00 +39°C° 0 mm 3 mps 709 mmHg 22%
    16:00 +39°C° 0 mm 2 mps 709 mmHg 23%
    17:00 +38°C° 0 mm 2 mps 708 mmHg 23%
    18:00 +36°C° 0 mm 2 mps 709 mmHg 27%
    19:00 +34°C° 0 mm 2 mps 709 mmHg 31%
    20:00 +31°C° 0 mm 1 mps 709 mmHg 35%
    21:00 +30°C° 0 mm 2 mps 709 mmHg 37%
    22:00 +30°C° 0 mm 2 mps 709 mmHg 38%
    23:00 +29°C° 0 mm 2 mps 709 mmHg 40%

    25 August, Sunday

    Time Temperature Precipitation Wind Pressure Humidity
    00:00 +29°C° 0 mm 2 mps 709 mmHg 42%
    01:00 +29°C° 0 mm 2 mps 709 mmHg 44%
    02:00 +28°C° 0 mm 2 mps 709 mmHg 47%
    03:00 +28°C° 0 mm 2 mps 709 mmHg 47%
    04:00 +28°C° 0 mm 2 mps 709 mmHg 47%
    05:00 +27°C° 0 mm 2 mps 709 mmHg 47%
    06:00 +30°C° 0 mm 2 mps 710 mmHg 41%
    07:00 +32°C° 0 mm 2 mps 710 mmHg 35%
    08:00 +36°C° 0 mm 2 mps 711 mmHg 29%
    09:00 +37°C° 0 mm 3 mps 711 mmHg 27%
    10:00 +38°C° 0 mm 3 mps 711 mmHg 25%
    11:00 +41°C° 0 mm 4 mps 711 mmHg 23%
    12:00 +41°C° 0 mm 4 mps 710 mmHg 22%
    13:00 +42°C° 0 mm 3 mps 710 mmHg 20%
    14:00 +42°C° 0 mm 3 mps 709 mmHg 19%
    15:00 +42°C° 0 mm 3 mps 709 mmHg 19%
    16:00 +40°C° 0 mm 2 mps 709 mmHg 19%
    17:00 +40°C° 0 mm 1 mps 709 mmHg 19%
    18:00 +36°C° 0 mm 1 mps 709 mmHg 22%
    19:00 +34°C° 0 mm 1 mps 709 mmHg 26%
    20:00 +31°C° 0 mm 1 mps 709 mmHg 29%
    21:00 +31°C° 0 mm 2 mps 709 mmHg 30%
    22:00 +31°C° 0 mm 3 mps 710 mmHg 31%
    23:00 +31°C° 0 mm 3 mps 710 mmHg 32%
    Show more